Вернуться в каталог

ONEWEB-0054

АктивенСвязьPO
NORAD 45158·PAYLOAD·🇬🇧 United Kingdom

Запущен Feb 6, 2020 с Baikonur Cosmodrome

Loading…

Ближайшие Пролёты (ближайшие 24 часа)

TLE

СвежийSource: CelesTrak SupGP

Эпоха: Sep 14, 2026, 23:29 UTC

1 45158C 20008AD  26257.97898563 -.00001530  00000+0 -43898-2 0  2571
2 45158  87.8895  18.3920 0001706 104.2958   5.6074 13.10369911    13

Отслеживайте ONEWEB-0054 в реальном времени с AllMySat

Download on the App Store